星链-31289 (STARLINK-31289 )

导读

STARLINK-31289是美国太空探索技术公司(SpaceX)星链星座的卫星成员,于美国东部时间2024年3月4日发射入轨,属于星链互联网卫星组网计划的一部分,旨在为全球提供高速低延迟宽带互联网服务,尤其覆盖偏远、网络基础设施薄弱地区,推动全球卫星互联网的覆盖建设。

Basic Information
目录编号:
59173
目录名称:
STARLINK-31289
国际标识:
2024-044X
轨道中心:
EARTH
卫星名称:
星链-31289
卫星全名:
星链-31289 (STARLINK-31289 )
卫星状态:
在轨 (已飞行914 天)
发射日期:
2024-03-04 UTC
国别 :
美国 (US)
星等 :
--
Orbit Information
数据来源 国际轨道数据
星历时间: 2026-09-04T04:34:59+0800
11小时前
查看轨道信息
半长轴: 6861.194km
偏心率: 0.0000923
轨道倾角: 43.002°
近地点辐角 256.551°
升交点赤经 180.861°
平近点角 103.524°
近地点: 482.423km
远地点: 483.691km
周期: 94.267分钟
每日圈数: 15.275775
Detailed Information
固有亮度:
5
最大亮度:
0.3
卫星平台:
Starlink v2.0 mini
覆盖范围:
全球
运营商:
太空探索技术公司
运营商所在国:
美国
制造商(研发单位):
太空探索技术公司
制造商所在国:
美国
使用方式:
暂无
Satellite Introduction
星链(Starlink)计划是由太空探索技术公司(SpaceX)提出的一个巨型低轨卫星互联网星座项目,计划在2019年至2024年间在太空搭建由约1.2万颗卫星组成的“星链”网络,其中1584颗将部署在地球上空550千米处的近地轨道,并从2020年开始工作。该卫星仍在工作。
2D Orbit Map
3D Orbit Map
Orbit Altitude Analysis Chart
Orbit Inclination Analysis Chart
Orbit Comprehensive Analysis Chart
View Comprehensive Chart